| time (UTC) | temp C | wind direction | speed KPH | gust KPH | rain 1hr cm | rain 24hr cm | rain mn cm | humidity % | barometer mb |
| 20260510204217 | 20 | 271 | 3.2 | 4.8 | 0.00 | 0.00 | 0.00 | 40 | 1012.4 |
| 20260510203714 | 20 | 0 | 0.0 | 1.6 | 0.00 | 0.00 | 0.00 | 41 | 1012.3 |
| 20260510203211 | 19 | 300 | 1.6 | 1.6 | 0.00 | 0.00 | 0.00 | 41 | 1012.5 |
| 20260510202706 | 19 | 179 | 3.2 | 4.8 | 0.00 | 0.00 | 0.00 | 42 | 1012.4 |
| 20260510202201 | 19 | 75 | 3.2 | 3.2 | 0.00 | 0.00 | 0.00 | 43 | 1012.1 |
| 20260510201659 | 19 | 6 | 1.6 | 1.6 | 0.00 | 0.00 | 0.00 | 45 | 1012.3 |
| 20260510201155 | 20 | 185 | 6.4 | 11.3 | 0.00 | 0.00 | 0.00 | 44 | 1012.2 |
| 20260510200652 | 20 | 1 | 0.0 | 0.0 | 0.00 | 0.00 | 0.00 | 43 | 1012.2 |
| 20260510200150 | 20 | 296 | 1.6 | 1.6 | 0.00 | 0.00 | 0.00 | 45 | 1012.1 |
| 20260510195647 | 20 | 327 | 0.0 | 1.6 | 0.00 | 0.00 | 0.00 | 46 | 1012.2 |
| 20260510195143 | 20 | 155 | 3.2 | 3.2 | 0.00 | 0.00 | 0.00 | 45 | 1012.3 |
| 20260510194642 | 20 | 180 | 1.6 | 1.6 | 0.00 | 0.00 | 0.00 | 49 | 1012.3 |
| 20260510194139 | 20 | 276 | 3.2 | 8.0 | 0.00 | 0.00 | 0.00 | 51 | 1012.3 |
| 20260510193634 | 20 | 321 | 4.8 | 8.0 | 0.00 | 0.00 | 0.00 | 48 | 1012.4 |
| 20260510193130 | 20 | 1 | 0.0 | 0.0 | 0.00 | 0.00 | 0.00 | 52 | 1012.4 |
| 20260510192625 | 20 | 333 | 1.6 | 3.2 | 0.00 | 0.00 | 0.00 | 53 | 1012.3 |
| 20260510192121 | 20 | 305 | 1.6 | 3.2 | 0.00 | 0.00 | 0.00 | 52 | 1012.4 |
| 20260510191618 | 19 | 339 | 1.6 | 1.6 | 0.00 | 0.00 | 0.00 | 55 | 1012.6 |
| 20260510191114 | 19 | 352 | 1.6 | 3.2 | 0.00 | 0.00 | 0.00 | 56 | 1012.6 |
| 20260510190612 | 20 | 289 | 1.6 | 1.6 | 0.00 | 0.00 | 0.00 | 54 | 1012.6 |
| 20260510190109 | 20 | 313 | 3.2 | 3.2 | 0.00 | 0.00 | 0.00 | 56 | 1012.5 |
| 20260510185605 | 20 | 342 | 4.8 | 9.7 | 0.00 | 0.00 | 0.00 | 53 | 1012.6 |
| 20260510185103 | 20 | 339 | 4.8 | 4.8 | 0.00 | 0.00 | 0.00 | 56 | 1012.5 |
| 20260510184600 | 19 | 147 | 1.6 | 1.6 | 0.00 | 0.00 | 0.00 | 56 | 1012.7 |
| 20260510184055 | 19 | 328 | 1.6 | 1.6 | 0.00 | 0.00 | 0.00 | 54 | 1012.6 |
| 20260510183551 | 19 | 322 | 3.2 | 3.2 | 0.00 | 0.00 | 0.00 | 54 | 1012.9 |
| 20260510183046 | 19 | 261 | 0.0 | 0.0 | 0.00 | 0.00 | 0.00 | 57 | 1012.7 |
| 20260510182544 | 19 | 25 | 3.2 | 8.0 | 0.00 | 0.00 | 0.00 | 52 | 1012.7 |
| 20260510182038 | 19 | 320 | 0.0 | 1.6 | 0.00 | 0.00 | 0.00 | 54 | 1012.8 |
| 20260510181537 | 19 | 359 | 3.2 | 3.2 | 0.00 | 0.00 | 0.00 | 55 | 1012.8 |
| 20260510181033 | 19 | 244 | 3.2 | 3.2 | 0.00 | 0.00 | 0.00 | 52 | 1012.6 |
| 20260510180530 | 20 | 332 | 1.6 | 1.6 | 0.00 | 0.00 | 0.00 | 56 | 1012.7 |
| 20260510180027 | 20 | 284 | 1.6 | 3.2 | 0.00 | 0.00 | 0.00 | 56 | 1012.8 |
| 20260510175522 | 19 | 172 | 1.6 | 3.2 | 0.00 | 0.00 | 0.00 | 59 | 1012.7 |
| 20260510175019 | 19 | 187 | 4.8 | 4.8 | 0.00 | 0.00 | 0.00 | 58 | 1012.7 |
| 20260510174517 | 18 | 255 | 1.6 | 1.6 | 0.00 | 0.00 | 0.00 | 62 | 1012.6 |
| 20260510174014 | 19 | 142 | 1.6 | 3.2 | 0.00 | 0.00 | 0.00 | 59 | 1012.5 |
| 20260510173509 | 18 | 321 | 0.0 | 1.6 | 0.00 | 0.00 | 0.00 | 63 | 1012.4 |
| 20260510173006 | 18 | 284 | 1.6 | 1.6 | 0.00 | 0.00 | 0.00 | 60 | 1012.4 |
| 20260510172501 | 18 | 343 | 1.6 | 3.2 | 0.00 | 0.00 | 0.00 | 59 | 1012.5 |
| 20260510171958 | 18 | 291 | 3.2 | 9.7 | 0.00 | 0.00 | 0.00 | 63 | 1012.3 |
| 20260510171455 | 18 | 356 | 3.2 | 4.8 | 0.00 | 0.00 | 0.00 | 61 | 1012.5 |
| 20260510170951 | 18 | 21 | 3.2 | 4.8 | 0.00 | 0.00 | 0.00 | 63 | 1012.4 |
| 20260510170448 | 17 | 290 | 1.6 | 4.8 | 0.00 | 0.00 | 0.00 | 66 | 1012.5 |
| 20260510165944 | 17 | 302 | 1.6 | 4.8 | 0.00 | 0.00 | 0.00 | 66 | 1012.8 |
| 20260510165440 | 18 | 26 | 4.8 | 4.8 | 0.00 | 0.00 | 0.00 | 62 | 1012.6 |
| 20260510164937 | 17 | 317 | 4.8 | 8.0 | 0.00 | 0.00 | 0.00 | 62 | 1012.7 |
| 20260510164434 | 17 | 10 | 1.6 | 1.6 | 0.00 | 0.00 | 0.00 | 69 | 1012.6 |
| 20260510163934 | 16 | 14 | 1.6 | 1.6 | 0.00 | 0.00 | 0.00 | 68 | 1012.8 |
| 20260510163431 | 16 | 338 | 6.4 | 9.7 | 0.00 | 0.00 | 0.00 | 67 | 1012.6 |
| 20260510162925 | 16 | 344 | 0.0 | 1.6 | 0.00 | 0.00 | 0.00 | 70 | 1012.8 |
| 20260510162423 | 16 | 287 | 0.0 | 1.6 | 0.00 | 0.00 | 0.00 | 68 | 1012.6 |
| 20260510161919 | 16 | 320 | 3.2 | 3.2 | 0.00 | 0.00 | 0.00 | 69 | 1012.6 |
| 20260510161415 | 16 | 303 | 0.0 | 1.6 | 0.00 | 0.00 | 0.00 | 66 | 1012.8 |
| 20260510160912 | 15 | 155 | 0.0 | 1.6 | 0.00 | 0.00 | 0.00 | 72 | 1012.9 |
| 20260510160409 | 15 | 334 | 0.0 | 0.0 | 0.00 | 0.00 | 0.00 | 72 | 1012.9 |
| 20260510155908 | 15 | 318 | 1.6 | 1.6 | 0.00 | 0.00 | 0.00 | 69 | 1013.0 |
| 20260510155405 | 15 | 337 | 3.2 | 3.2 | 0.00 | 0.00 | 0.00 | 71 | 1013.0 |
| 20260510154901 | 15 | 314 | 0.0 | 1.6 | 0.00 | 0.00 | 0.00 | 75 | 1012.9 |
| 20260510154358 | 14 | 349 | 0.0 | 0.0 | 0.00 | 0.00 | 0.00 | 82 | 1012.9 |
| 20260510153851 | 14 | 75 | 1.6 | 1.6 | 0.00 | 0.00 | 0.00 | 84 | 1012.9 |
| 20260510153347 | 15 | 264 | 0.0 | 1.6 | 0.00 | 0.00 | 0.00 | 85 | 1012.8 |
| 20260510152844 | 15 | 321 | 3.2 | 4.8 | 0.00 | 0.00 | 0.00 | 84 | 1012.8 |
| 20260510152342 | 15 | 282 | 3.2 | 3.2 | 0.00 | 0.00 | 0.00 | 85 | 1012.8 |
| 20260510151838 | 15 | 336 | 0.0 | 0.0 | 0.00 | 0.00 | 0.00 | 85 | 1012.4 |
| 20260510151336 | 15 | 206 | 1.6 | 1.6 | 0.00 | 0.00 | 0.00 | 84 | 1012.2 |
| 20260510150831 | 15 | 291 | 0.0 | 1.6 | 0.00 | 0.00 | 0.00 | 86 | 1012.3 |
| 20260510150327 | 13 | 331 | 1.6 | 1.6 | 0.00 | 0.00 | 0.00 | 87 | 1012.3 |
| 20260510145824 | 13 | 295 | 0.0 | 1.6 | 0.00 | 0.00 | 0.00 | 90 | 1012.2 |
| 20260510145320 | 13 | 257 | 1.6 | 1.6 | 0.00 | 0.00 | 0.00 | 91 | 1012.2 |
| 20260510144817 | 13 | 307 | 1.6 | 3.2 | 0.00 | 0.00 | 0.00 | 92 | 1012.1 |
| 20260510144314 | 13 | 313 | 1.6 | 3.2 | 0.00 | 0.00 | 0.00 | 92 | 1011.9 |
| 20260510143813 | 13 | 285 | 0.0 | 0.0 | 0.00 | 0.00 | 0.00 | 93 | 1011.9 |
| 20260510143310 | 13 | 345 | 0.0 | 0.0 | 0.00 | 0.00 | 0.00 | 92 | 1011.9 |
| 20260510142806 | 14 | 290 | 1.6 | 3.2 | 0.00 | 0.00 | 0.00 | 92 | 1011.7 |
| 20260510142306 | 13 | 338 | 0.0 | 0.0 | 0.00 | 0.00 | 0.00 | 93 | 1011.8 |
| 20260510141800 | 13 | 341 | 0.0 | 0.0 | 0.00 | 0.00 | 0.00 | 93 | 1011.7 |
| 20260510141258 | 13 | 332 | 1.6 | 1.6 | 0.00 | 0.00 | 0.00 | 94 | 1011.7 |
| 20260510140755 | 13 | 347 | 0.0 | 0.0 | 0.00 | 0.00 | 0.00 | 94 | 1011.6 |
| 20260510140250 | 13 | 355 | 0.0 | 0.0 | 0.00 | 0.00 | 0.00 | 94 | 1011.4 |
| 20260510135744 | 13 | 342 | 0.0 | 0.0 | 0.00 | 0.00 | 0.00 | 95 | 1011.5 |
| 20260510135240 | 12 | 356 | 0.0 | 0.0 | 0.00 | 0.00 | 0.00 | 95 | 1011.6 |
| 20260510134738 | 13 | 359 | 0.0 | 0.0 | 0.00 | 0.00 | 0.00 | 95 | 1011.3 |
| 20260510134235 | 13 | 34 | 1.6 | 1.6 | 0.00 | 0.00 | 0.00 | 95 | 1011.6 |
| 20260510133730 | 13 | 346 | 0.0 | 1.6 | 0.00 | 0.00 | 0.00 | 95 | 1011.7 |
| 20260510133226 | 13 | 354 | 0.0 | 0.0 | 0.00 | 0.00 | 0.00 | 95 | 1011.4 |
| 20260510132722 | 13 | 342 | 0.0 | 0.0 | 0.00 | 0.00 | 0.00 | 96 | 1011.2 |
| 20260510132220 | 13 | 354 | 0.0 | 0.0 | 0.00 | 0.00 | 0.00 | 96 | 1011.3 |
| 20260510131717 | 13 | 294 | 1.6 | 1.6 | 0.00 | 0.00 | 0.00 | 95 | 1011.3 |
| 20260510131215 | 13 | 0 | 0.0 | 1.6 | 0.00 | 0.00 | 0.00 | 96 | 1011.3 |
| 20260510130711 | 13 | 290 | 1.6 | 4.8 | 0.00 | 0.00 | 0.00 | 96 | 1011.3 |
| 20260510130208 | 12 | 351 | 0.0 | 0.0 | 0.00 | 0.00 | 0.00 | 98 | 1011.2 |
| 20260510125704 | 12 | 4 | 0.0 | 0.0 | 0.00 | 0.00 | 0.00 | 99 | 1011.1 |
| 20260510125201 | 12 | 356 | 0.0 | 0.0 | 0.00 | 0.00 | 0.00 | 99 | 1011.0 |
| 20260510124658 | 12 | 352 | 0.0 | 0.0 | 0.00 | 0.00 | 0.00 | 99 | 1011.0 |
| 20260510124155 | 12 | 347 | 0.0 | 1.6 | 0.00 | 0.00 | 0.00 | 99 | 1011.2 |
| 20260510123650 | 11 | 355 | 0.0 | 0.0 | 0.00 | 0.00 | 0.00 | 99 | 1011.1 |
| 20260510123146 | 11 | 351 | 0.0 | 0.0 | 0.00 | 0.00 | 0.00 | 99 | 1010.9 |
| 20260510122643 | 11 | 319 | 0.0 | 1.6 | 0.00 | 0.00 | 0.00 | 99 | 1010.9 |
| 20260510122139 | 11 | 10 | 0.0 | 0.0 | 0.00 | 0.00 | 0.00 | 99 | 1011.2 |
| 20260510121635 | 11 | 318 | 0.0 | 0.0 | 0.00 | 0.00 | 0.00 | 99 | 1011.0 |
| 20260510121133 | 11 | 328 | 0.0 | 0.0 | 0.00 | 0.00 | 0.00 | 99 | 1010.9 |
| 20260510120631 | 11 | 344 | 0.0 | 0.0 | 0.00 | 0.00 | 0.00 | 99 | 1011.2 |
| 20260510120126 | 11 | 316 | 3.2 | 3.2 | 0.00 | 0.00 | 0.00 | 99 | 1011.0 |
| 20260510115622 | 11 | 351 | 0.0 | 0.0 | 0.00 | 0.00 | 0.00 | 99 | 1010.8 |
| 20260510115121 | 11 | 341 | 0.0 | 0.0 | 0.00 | 0.00 | 0.00 | 99 | 1011.0 |
| 20260510114615 | 11 | 343 | 3.2 | 4.8 | 0.00 | 0.00 | 0.00 | 99 | 1010.9 |
| 20260510114112 | 10 | 356 | 0.0 | 0.0 | 0.00 | 0.00 | 0.00 | 99 | 1010.8 |
| 20260510113608 | 10 | 355 | 0.0 | 0.0 | 0.00 | 0.00 | 0.00 | 99 | 1010.7 |
| 20260510113105 | 10 | 315 | 0.0 | 0.0 | 0.00 | 0.00 | 0.00 | 99 | 1010.8 |
| 20260510112601 | 10 | 6 | 0.0 | 0.0 | 0.00 | 0.00 | 0.00 | 99 | 1010.9 |
| 20260510112058 | 10 | 346 | 0.0 | 0.0 | 0.00 | 0.00 | 0.00 | 99 | 1011.0 |
| 20260510111554 | 10 | 325 | 0.0 | 0.0 | 0.00 | 0.00 | 0.00 | 99 | 1010.8 |
| 20260510111050 | 10 | 336 | 3.2 | 3.2 | 0.00 | 0.00 | 0.00 | 99 | 1010.8 |
| 20260510110547 | 10 | 1 | 0.0 | 0.0 | 0.00 | 0.00 | 0.00 | 99 | 1010.5 |
| 20260510110043 | 10 | 347 | 0.0 | 0.0 | 0.00 | 0.00 | 0.00 | 99 | 1010.4 |
| 20260510105539 | 10 | 18 | 0.0 | 1.6 | 0.00 | 0.00 | 0.00 | 99 | 1010.4 |
| 20260510105033 | 10 | 0 | 0.0 | 0.0 | 0.00 | 0.00 | 0.00 | 99 | 1010.4 |
| 20260510104530 | 10 | 355 | 0.0 | 0.0 | 0.00 | 0.00 | 0.00 | 99 | 1010.4 |
| 20260510104027 | 10 | 359 | 0.0 | 0.0 | 0.00 | 0.00 | 0.00 | 99 | 1010.4 |
| 20260510103524 | 10 | 352 | 0.0 | 0.0 | 0.00 | 0.00 | 0.00 | 99 | 1010.4 |
| 20260510103020 | 10 | 350 | 0.0 | 0.0 | 0.00 | 0.00 | 0.00 | 99 | 1010.0 |
| 20260510102516 | 10 | 343 | 0.0 | 0.0 | 0.00 | 0.00 | 0.00 | 99 | 1010.2 |
| 20260510102013 | 10 | 350 | 0.0 | 0.0 | 0.00 | 0.00 | 0.00 | 99 | 1010.4 |
| 20260510101510 | 10 | 349 | 0.0 | 0.0 | 0.00 | 0.00 | 0.00 | 99 | 1009.9 |
| 20260510101009 | 10 | 351 | 0.0 | 0.0 | 0.00 | 0.00 | 0.00 | 99 | 1009.8 |
| 20260510100504 | 10 | 327 | 0.0 | 0.0 | 0.00 | 0.00 | 0.00 | 99 | 1009.7 |
| 20260510100002 | 10 | 348 | 0.0 | 0.0 | 0.00 | 0.00 | 0.00 | 99 | 1009.6 |
| 20260510095456 | 10 | 350 | 0.0 | 0.0 | 0.00 | 0.00 | 0.00 | 99 | 1009.7 |
| 20260510094956 | 10 | 349 | 0.0 | 0.0 | 0.00 | 0.00 | 0.00 | 99 | 1009.8 |
| 20260510094451 | 10 | 344 | 0.0 | 0.0 | 0.00 | 0.00 | 0.00 | 99 | 1009.7 |
| 20260510093947 | 10 | 352 | 0.0 | 0.0 | 0.00 | 0.00 | 0.00 | 99 | 1009.4 |
| 20260510093443 | 10 | 357 | 0.0 | 0.0 | 0.00 | 0.00 | 0.00 | 99 | 1009.4 |
| 20260510092939 | 10 | 354 | 0.0 | 0.0 | 0.00 | 0.00 | 0.00 | 99 | 1009.1 |
| 20260510092437 | 9 | 349 | 0.0 | 0.0 | 0.00 | 0.00 | 0.00 | 99 | 1009.0 |
| 20260510091936 | 9 | 347 | 0.0 | 0.0 | 0.00 | 0.00 | 0.00 | 99 | 1009.1 |
| 20260510091434 | 9 | 347 | 0.0 | 0.0 | 0.00 | 0.00 | 0.00 | 99 | 1009.0 |
| 20260510090930 | 9 | 345 | 0.0 | 0.0 | 0.00 | 0.00 | 0.00 | 99 | 1009.2 |
| 20260510090427 | 9 | 346 | 0.0 | 0.0 | 0.00 | 0.00 | 0.00 | 99 | 1009.1 |
| 20260510085922 | 9 | 348 | 0.0 | 0.0 | 0.00 | 0.00 | 0.00 | 99 | 1009.0 |
| 20260510085418 | 9 | 348 | 0.0 | 0.0 | 0.00 | 0.00 | 0.00 | 99 | 1009.0 |
| 20260510084913 | 9 | 348 | 0.0 | 0.0 | 0.00 | 0.00 | 0.00 | 99 | 1009.2 |
| 20260510084411 | 9 | 349 | 0.0 | 0.0 | 0.00 | 0.00 | 0.00 | 99 | 1008.8 |
| 20260510083907 | 9 | 349 | 0.0 | 0.0 | 0.00 | 0.00 | 0.00 | 99 | 1009.0 |
| 20260510083404 | 10 | 348 | 0.0 | 0.0 | 0.00 | 0.00 | 0.00 | 99 | 1009.1 |
| 20260510082859 | 10 | 348 | 0.0 | 0.0 | 0.00 | 0.00 | 0.00 | 99 | 1009.2 |
| 20260510082357 | 10 | 351 | 0.0 | 0.0 | 0.00 | 0.00 | 0.00 | 99 | 1009.2 |
| 20260510081855 | 10 | 329 | 0.0 | 0.0 | 0.00 | 0.00 | 0.00 | 99 | 1009.1 |
| 20260510081352 | 10 | 320 | 0.0 | 0.0 | 0.00 | 0.00 | 0.00 | 99 | 1009.4 |
| 20260510080849 | 10 | 348 | 0.0 | 0.0 | 0.00 | 0.00 | 0.00 | 99 | 1009.1 |
| 20260510080342 | 10 | 344 | 0.0 | 0.0 | 0.00 | 0.00 | 0.00 | 99 | 1009.2 |
| 20260510075840 | 10 | 329 | 0.0 | 0.0 | 0.00 | 0.00 | 0.00 | 99 | 1009.1 |
| 20260510075338 | 10 | 348 | 0.0 | 0.0 | 0.00 | 0.00 | 0.00 | 99 | 1009.0 |
| 20260510074834 | 10 | 349 | 0.0 | 1.6 | 0.00 | 0.00 | 0.00 | 99 | 1009.0 |
| 20260510074331 | 10 | 355 | 0.0 | 0.0 | 0.00 | 0.00 | 0.00 | 99 | 1008.6 |
| 20260510073828 | 10 | 36 | 0.0 | 1.6 | 0.00 | 0.00 | 0.00 | 99 | 1008.6 |
| 20260510073323 | 10 | 2 | 0.0 | 0.0 | 0.00 | 0.00 | 0.00 | 99 | 1008.8 |
| 20260510072820 | 10 | 316 | 0.0 | 0.0 | 0.00 | 0.00 | 0.00 | 99 | 1008.7 |
| 20260510072317 | 10 | 349 | 0.0 | 0.0 | 0.00 | 0.00 | 0.00 | 99 | 1009.0 |
| 20260510071813 | 10 | 343 | 0.0 | 0.0 | 0.00 | 0.00 | 0.00 | 99 | 1009.1 |
| 20260510071309 | 10 | 64 | 0.0 | 0.0 | 0.00 | 0.00 | 0.00 | 99 | 1009.1 |
| 20260510070809 | 10 | 0 | 0.0 | 0.0 | 0.00 | 0.00 | 0.00 | 99 | 1009.5 |
| 20260510070305 | 11 | 50 | 0.0 | 0.0 | 0.00 | 0.00 | 0.00 | 99 | 1009.6 |
| 20260510065804 | 11 | 17 | 0.0 | 0.0 | 0.00 | 0.00 | 0.00 | 99 | 1009.6 |
| 20260510065305 | 11 | 4 | 0.0 | 0.0 | 0.00 | 0.00 | 0.00 | 99 | 1009.6 |
| 20260510064758 | 11 | 352 | 0.0 | 0.0 | 0.00 | 0.00 | 0.00 | 99 | 1009.8 |
| 20260510064256 | 11 | 347 | 0.0 | 0.0 | 0.00 | 0.00 | 0.00 | 99 | 1009.9 |
| 20260510063751 | 11 | 339 | 0.0 | 0.0 | 0.00 | 0.00 | 0.00 | 99 | 1009.8 |
| 20260510063248 | 11 | 347 | 0.0 | 0.0 | 0.00 | 0.00 | 0.00 | 99 | 1009.7 |
| 20260510062745 | 11 | 352 | 0.0 | 1.6 | 0.00 | 0.00 | 0.00 | 99 | 1009.8 |
| 20260510062241 | 11 | 344 | 0.0 | 0.0 | 0.00 | 0.00 | 0.00 | 99 | 1010.0 |
| 20260510061736 | 11 | 347 | 0.0 | 0.0 | 0.00 | 0.00 | 0.00 | 99 | 1010.0 |
| 20260510061234 | 11 | 344 | 0.0 | 0.0 | 0.00 | 0.00 | 0.00 | 99 | 1009.9 |
| 20260510060730 | 11 | 341 | 1.6 | 1.6 | 0.00 | 0.00 | 0.00 | 99 | 1009.7 |
| 20260510060227 | 11 | 4 | 0.0 | 0.0 | 0.00 | 0.00 | 0.00 | 99 | 1009.7 |
| 20260510055723 | 11 | 355 | 0.0 | 0.0 | 0.00 | 0.00 | 0.00 | 99 | 1009.6 |
| 20260510055221 | 11 | 347 | 0.0 | 0.0 | 0.00 | 0.00 | 0.00 | 99 | 1009.6 |
| 20260510054716 | 11 | 330 | 0.0 | 0.0 | 0.00 | 0.00 | 0.00 | 99 | 1009.5 |
| 20260510054212 | 11 | 347 | 0.0 | 0.0 | 0.00 | 0.00 | 0.00 | 99 | 1009.5 |
| 20260510053712 | 11 | 355 | 0.0 | 0.0 | 0.00 | 0.00 | 0.00 | 99 | 1009.3 |
| 20260510053208 | 11 | 3 | 0.0 | 0.0 | 0.00 | 0.00 | 0.00 | 99 | 1009.4 |
| 20260510052704 | 11 | 302 | 0.0 | 0.0 | 0.00 | 0.00 | 0.00 | 99 | 1009.4 |
| 20260510052200 | 11 | 347 | 4.8 | 4.8 | 0.00 | 0.00 | 0.00 | 99 | 1009.3 |
| 20260510051656 | 11 | 351 | 0.0 | 0.0 | 0.00 | 0.00 | 0.00 | 99 | 1009.2 |
| 20260510051153 | 11 | 348 | 0.0 | 0.0 | 0.00 | 0.00 | 0.00 | 99 | 1009.2 |
| 20260510050650 | 11 | 350 | 0.0 | 0.0 | 0.00 | 0.00 | 0.00 | 99 | 1009.2 |
| 20260510050147 | 11 | 24 | 0.0 | 0.0 | 0.00 | 0.00 | 0.00 | 99 | 1009.0 |
| 20260510045644 | 11 | 310 | 0.0 | 1.6 | 0.00 | 0.00 | 0.00 | 99 | 1009.4 |
| 20260510045141 | 11 | 355 | 0.0 | 1.6 | 0.00 | 0.00 | 0.00 | 99 | 1008.8 |
| 20260510044637 | 11 | 349 | 0.0 | 0.0 | 0.00 | 0.00 | 0.00 | 99 | 1009.3 |
| 20260510044134 | 11 | 351 | 0.0 | 0.0 | 0.00 | 0.00 | 0.00 | 99 | 1009.4 |
| 20260510043630 | 11 | 290 | 6.4 | 8.0 | 0.00 | 0.00 | 0.00 | 99 | 1009.4 |
| 20260510043127 | 11 | 352 | 0.0 | 0.0 | 0.00 | 0.00 | 0.00 | 99 | 1009.1 |
| 20260510042624 | 10 | 353 | 0.0 | 0.0 | 0.00 | 0.00 | 0.00 | 99 | 1009.4 |
| 20260510042120 | 10 | 354 | 0.0 | 1.6 | 0.00 | 0.00 | 0.00 | 99 | 1009.4 |
| 20260510041617 | 10 | 4 | 0.0 | 0.0 | 0.00 | 0.00 | 0.00 | 99 | 1009.5 |
| 20260510041114 | 10 | 349 | 0.0 | 0.0 | 0.00 | 0.00 | 0.00 | 99 | 1009.3 |
| 20260510040612 | 10 | 344 | 0.0 | 0.0 | 0.00 | 0.00 | 0.00 | 99 | 1009.2 |
| 20260510040108 | 10 | 358 | 0.0 | 0.0 | 0.00 | 0.00 | 0.00 | 99 | 1009.0 |
| 20260510035603 | 10 | 351 | 0.0 | 0.0 | 0.00 | 0.84 | 0.84 | 99 | 1009.3 |
| 20260510035058 | 10 | 340 | 0.0 | 0.0 | 0.00 | 0.84 | 0.84 | 99 | 1009.2 |
| 20260510034556 | 10 | 345 | 0.0 | 0.0 | 0.00 | 0.84 | 0.84 | 99 | 1009.3 |
| 20260510034053 | 10 | 347 | 0.0 | 0.0 | 0.00 | 0.84 | 0.84 | 99 | 1009.4 |
| 20260510033549 | 10 | 7 | 0.0 | 0.0 | 0.00 | 0.84 | 0.84 | 99 | 1009.3 |
| 20260510033047 | 10 | 342 | 0.0 | 0.0 | 0.00 | 0.84 | 0.84 | 99 | 1009.0 |
| 20260510032543 | 10 | 55 | 0.0 | 0.0 | 0.00 | 0.84 | 0.84 | 99 | 1008.9 |
| 20260510032038 | 10 | 357 | 0.0 | 0.0 | 0.00 | 0.84 | 0.84 | 99 | 1008.8 |
| 20260510031533 | 10 | 296 | 0.0 | 0.0 | 0.00 | 0.84 | 0.84 | 99 | 1009.0 |
| 20260510031030 | 10 | 143 | 3.2 | 3.2 | 0.00 | 0.84 | 0.84 | 99 | 1009.0 |
| 20260510030526 | 10 | 346 | 0.0 | 0.0 | 0.00 | 0.84 | 0.84 | 99 | 1009.1 |
| 20260510030023 | 10 | 10 | 0.0 | 1.6 | 0.00 | 0.84 | 0.84 | 99 | 1009.0 |
| 20260510025520 | 10 | 358 | 0.0 | 0.0 | 0.00 | 0.84 | 0.84 | 99 | 1009.2 |
| 20260510025018 | 11 | 28 | 0.0 | 0.0 | 0.00 | 0.84 | 0.84 | 99 | 1009.4 |
| 20260510024514 | 11 | 0 | 0.0 | 0.0 | 0.00 | 0.84 | 0.84 | 99 | 1009.4 |
| 20260510024010 | 11 | 347 | 0.0 | 0.0 | 0.00 | 0.84 | 0.84 | 99 | 1009.4 |
| 20260510023506 | 11 | 352 | 0.0 | 0.0 | 0.00 | 0.84 | 0.84 | 99 | 1009.3 |
| 20260510023004 | 11 | 32 | 0.0 | 0.0 | 0.00 | 0.84 | 0.84 | 99 | 1009.5 |
| 20260510022503 | 11 | 358 | 0.0 | 0.0 | 0.00 | 0.84 | 0.84 | 99 | 1009.4 |
| 20260510022003 | 11 | 356 | 1.6 | 1.6 | 0.00 | 0.84 | 0.84 | 99 | 1009.4 |
| 20260510021500 | 11 | 2 | 0.0 | 0.0 | 0.00 | 0.84 | 0.84 | 99 | 1009.3 |
| 20260510020956 | 11 | 342 | 0.0 | 1.6 | 0.00 | 0.84 | 0.84 | 99 | 1009.2 |
| 20260510020451 | 11 | 356 | 0.0 | 0.0 | 0.00 | 0.84 | 0.84 | 99 | 1009.1 |
| 20260510015946 | 11 | 77 | 3.2 | 3.2 | 0.00 | 0.84 | 0.84 | 99 | 1009.1 |
| 20260510015437 | 11 | 0 | 0.0 | 0.0 | 0.00 | 0.84 | 0.84 | 99 | 1009.4 |
| 20260510014932 | 11 | 358 | 0.0 | 0.0 | 0.00 | 0.84 | 0.84 | 99 | 1009.5 |
| 20260510014430 | 11 | 354 | 0.0 | 0.0 | 0.00 | 0.84 | 0.84 | 99 | 1009.3 |
| 20260510013926 | 11 | 3 | 0.0 | 0.0 | 0.00 | 0.84 | 0.84 | 99 | 1009.1 |
| 20260510013421 | 11 | 0 | 0.0 | 1.6 | 0.00 | 0.84 | 0.84 | 99 | 1009.3 |
| 20260510012916 | 11 | 310 | 0.0 | 1.6 | 0.00 | 0.84 | 0.84 | 99 | 1009.3 |
| 20260510012412 | 11 | 352 | 0.0 | 0.0 | 0.00 | 0.84 | 0.84 | 99 | 1009.4 |
| 20260510011907 | 11 | 5 | 0.0 | 0.0 | 0.00 | 0.84 | 0.84 | 99 | 1009.4 |
| 20260510011402 | 11 | 352 | 0.0 | 0.0 | 0.00 | 0.84 | 0.84 | 99 | 1009.6 |
| 20260510010858 | 11 | 25 | 0.0 | 0.0 | 0.00 | 0.84 | 0.84 | 99 | 1009.3 |
| 20260510010356 | 11 | 351 | 0.0 | 0.0 | 0.00 | 0.84 | 0.84 | 99 | 1009.4 |
| 20260510005852 | 11 | 354 | 0.0 | 0.0 | 0.00 | 0.84 | 0.84 | 99 | 1009.3 |
| 20260510005348 | 11 | 358 | 0.0 | 0.0 | 0.00 | 0.84 | 0.84 | 99 | 1009.4 |
| 20260510004846 | 11 | 357 | 0.0 | 0.0 | 0.00 | 0.84 | 0.84 | 99 | 1009.3 |
| 20260510004343 | 11 | 357 | 0.0 | 0.0 | 0.00 | 0.84 | 0.84 | 99 | 1009.1 |
| 20260510003841 | 11 | 357 | 0.0 | 0.0 | 0.00 | 0.84 | 0.84 | 99 | 1009.1 |
| 20260510003338 | 11 | 349 | 0.0 | 0.0 | 0.00 | 0.84 | 0.84 | 99 | 1009.3 |
| 20260510002836 | 11 | 349 | 0.0 | 0.0 | 0.00 | 0.84 | 0.84 | 99 | 1009.3 |
| 20260510002334 | 11 | 349 | 0.0 | 0.0 | 0.00 | 0.84 | 0.84 | 99 | 1008.9 |
| 20260510001830 | 11 | 349 | 0.0 | 0.0 | 0.00 | 0.84 | 0.84 | 99 | 1009.1 |
| 20260510001329 | 11 | 349 | 0.0 | 0.0 | 0.00 | 0.84 | 0.84 | 99 | 1009.0 |
| 20260510000824 | 11 | 353 | 0.0 | 0.0 | 0.00 | 0.84 | 0.84 | 99 | 1008.9 |
| 20260510000322 | 11 | 351 | 0.0 | 0.0 | 0.00 | 0.84 | 0.84 | 99 | 1008.7 |
| 20260509235819 | 11 | 352 | 0.0 | 0.0 | 0.00 | 0.84 | 0.84 | 99 | 1008.6 |
| 20260509235315 | 11 | 358 | 0.0 | 0.0 | 0.00 | 0.84 | 0.84 | 99 | 1008.5 |
| 20260509234811 | 11 | 351 | 0.0 | 0.0 | 0.00 | 0.84 | 0.84 | 99 | 1008.6 |
| 20260509234308 | 11 | 20 | 0.0 | 0.0 | 0.00 | 0.84 | 0.84 | 99 | 1008.5 |
| 20260509233806 | 11 | 353 | 0.0 | 0.0 | 0.00 | 0.84 | 0.84 | 99 | 1008.5 |
| 20260509233304 | 11 | 353 | 0.0 | 0.0 | 0.00 | 0.84 | 0.84 | 99 | 1008.5 |
| 20260509232759 | 11 | 355 | 0.0 | 0.0 | 0.00 | 0.84 | 0.84 | 99 | 1008.5 |
| 20260509232257 | 11 | 347 | 0.0 | 0.0 | 0.00 | 0.84 | 0.84 | 99 | 1008.3 |
| 20260509231753 | 11 | 345 | 0.0 | 0.0 | 0.00 | 0.84 | 0.84 | 99 | 1008.5 |
| 20260509231250 | 11 | 355 | 0.0 | 0.0 | 0.00 | 0.84 | 0.84 | 99 | 1008.2 |
| 20260509230748 | 11 | 351 | 0.0 | 0.0 | 0.00 | 0.84 | 0.84 | 99 | 1008.3 |
| 20260509230244 | 11 | 354 | 0.0 | 0.0 | 0.00 | 0.84 | 0.84 | 99 | 1008.5 |
| 20260509225739 | 11 | 353 | 0.0 | 0.0 | 0.00 | 0.84 | 0.84 | 99 | 1008.2 |
| 20260509225236 | 11 | 355 | 0.0 | 0.0 | 0.00 | 0.84 | 0.84 | 99 | 1008.3 |
| 20260509224732 | 11 | 0 | 0.0 | 0.0 | 0.00 | 0.84 | 0.84 | 99 | 1008.6 |
| 20260509224229 | 11 | 353 | 0.0 | 0.0 | 0.00 | 0.84 | 0.84 | 99 | 1008.2 |
| 20260509223726 | 11 | 352 | 0.0 | 0.0 | 0.00 | 0.84 | 0.84 | 99 | 1008.5 |
| 20260509223223 | 11 | 0 | 0.0 | 0.0 | 0.00 | 0.84 | 0.84 | 99 | 1008.4 |
| 20260509222720 | 11 | 357 | 0.0 | 0.0 | 0.00 | 0.84 | 0.84 | 99 | 1008.4 |
| 20260509222215 | 11 | 358 | 0.0 | 0.0 | 0.00 | 0.84 | 0.84 | 99 | 1008.6 |
| 20260509221711 | 11 | 355 | 0.0 | 0.0 | 0.00 | 0.84 | 0.84 | 99 | 1008.5 |
| 20260509221207 | 11 | 1 | 0.0 | 0.0 | 0.00 | 0.84 | 0.84 | 99 | 1008.5 |
| 20260509220703 | 11 | 351 | 0.0 | 0.0 | 0.00 | 0.84 | 0.84 | 99 | 1008.5 |
| 20260509220200 | 11 | 352 | 0.0 | 0.0 | 0.00 | 0.84 | 0.84 | 99 | 1008.5 |
| 20260509215655 | 11 | 351 | 0.0 | 0.0 | 0.00 | 0.84 | 0.84 | 99 | 1008.8 |
| 20260509215153 | 11 | 350 | 0.0 | 0.0 | 0.00 | 0.84 | 0.84 | 99 | 1008.9 |
| 20260509214650 | 11 | 359 | 0.0 | 0.0 | 0.00 | 0.84 | 0.84 | 99 | 1008.9 |
| 20260509214146 | 11 | 349 | 0.0 | 0.0 | 0.00 | 0.84 | 0.84 | 99 | 1008.9 |
| 20260509213644 | 11 | 353 | 0.0 | 0.0 | 0.00 | 0.84 | 0.84 | 99 | 1009.1 |
| 20260509213139 | 11 | 353 | 0.0 | 0.0 | 0.00 | 0.84 | 0.84 | 99 | 1009.0 |
| 20260509212637 | 10 | 353 | 0.0 | 0.0 | 0.00 | 0.84 | 0.84 | 99 | 1009.0 |
| 20260509212133 | 10 | 349 | 0.0 | 0.0 | 0.00 | 0.84 | 0.84 | 99 | 1008.9 |
| 20260509211629 | 10 | 351 | 0.0 | 0.0 | 0.00 | 0.84 | 0.84 | 99 | 1008.9 |
| 20260509211126 | 10 | 352 | 0.0 | 0.0 | 0.00 | 0.84 | 0.84 | 99 | 1009.0 |
| 20260509210623 | 10 | 336 | 0.0 | 0.0 | 0.00 | 0.84 | 0.84 | 99 | 1009.2 |
| 20260509210120 | 10 | 344 | 0.0 | 0.0 | 0.00 | 0.84 | 0.84 | 99 | 1009.3 |
| 20260509205614 | 10 | 354 | 0.0 | 0.0 | 0.13 | 0.84 | 0.84 | 99 | 1009.2 |
| 20260509205109 | 10 | 354 | 0.0 | 0.0 | 0.13 | 0.84 | 0.84 | 99 | 1009.2 |